Location: Buch
(49.7331°N, 12.1098°E)
Time: 04:17:59
(UTC+00:00)

Cosmos 2297 Rocket - Pass Details

Date: 12 May 2021
Orbit: 838 x 845 km, 71.0° (Epoch: 23 June)

Event Time Altitude Azimuth Distance (km) Brightness Sun altitude
Rises 22:44:17 0° 334° (NNW) 3,413 6.6 -21.7°
Reaches altitude 10° 22:47:22 10° 350° (N) 2,476 5.8 -21.7°
Maximum altitude 22:51:38 21° 39° (NE) 1,804 4.4 -21.8°
Drops below altitude 10° 22:55:54 10° 88° (E) 2,470 4.6 -21.8°
Sets 22:58:57 0° 104° (ESE) 3,402 5.2 -21.9°
